Location: Kosice
(48.7167°N, 21.2500°E)
Time: 01:51:30
(UTC+01:00)

ISS - Pass Details

Date: 29 January 2021
Orbit: 417 x 422 km, 51.6° (Epoch: 06 March)

Event Time Altitude Azimuth Distance (km) Brightness Sun altitude
Rises 18:02:04 0° 284° (WNW) 2,375 1.4 -15.5°
Reaches altitude 10° 18:04:13 10° 289° (WNW) 1,510 0.0 -15.8°
Maximum altitude 18:07:32 53° 8° (N) 526 -3.4 -16.4°
Enters shadow 18:08:22 41° 57° (ENE) 632 -3.3 -16.5°
